JBU1169 KJFK-MDPC

Flight info

Callsign JBU1169
Flight time 3h 26m
Altitude 34000
Route SHIPP Y488 WEBBB Y488 HOBOH Y488 CHUBY Y488 SAUCR L453 LAMER L453 RODRK DCT POKEG POKEG2B
Aircraft A320/M-SDE3FGHIRWY/LB1

Departure

Time 2026-05-05 15:22
Airport John F. Kennedy International Airport (KJFK)

Arrival

Time 2026-05-05 18:49
Airport Punta Cana International Airport (MDPC)
Time Latitude Longitude Altitude Speed Heading
2026-05-05 14:21 40.64422 -73.77591 16 ft 0 kts
2026-05-05 15:01 40.64402 -73.77595 17 ft 4 kts
2026-05-05 15:02 40.64386 -73.77597 17 ft 1 kts
2026-05-05 15:02 40.64383 -73.77597 17 ft 0 kts
2026-05-05 15:02 40.64384 -73.77597 17 ft 0 kts
2026-05-05 15:07 40.64378 -73.77598 15 ft 2 kts
2026-05-05 15:08 40.64360 -73.77602 17 ft 3 kts 35°
2026-05-05 15:08 40.64347 -73.77619 17 ft 3 kts 71°
2026-05-05 15:08 40.64345 -73.77643 19 ft 3 kts 108°
2026-05-05 15:08 40.64352 -73.77664 16 ft 3 kts 118°
2026-05-05 15:09 40.64363 -73.77683 17 ft 2 kts 134°
2026-05-05 15:09 40.64371 -73.77693 16 ft 0 kts 147°
2026-05-05 15:12 40.64368 -73.77690 17 ft 1 kts 147°
2026-05-05 15:13 40.64356 -73.77680 17 ft 3 kts 147°
2026-05-05 15:13 40.64335 -73.77663 17 ft 4 kts 150°
2026-05-05 15:13 40.64304 -73.77641 16 ft 6 kts 152°
2026-05-05 15:13 40.64281 -73.77624 16 ft 6 kts 152°
2026-05-05 15:14 40.64240 -73.77596 16 ft 7 kts 152°
2026-05-05 15:14 40.64197 -73.77565 17 ft 7 kts 150°
2026-05-05 15:14 40.64152 -73.77530 16 ft 8 kts 148°
2026-05-05 15:14 40.64109 -73.77487 16 ft 8 kts 138°
2026-05-05 15:15 40.64074 -73.77430 16 ft 8 kts 127°
2026-05-05 15:15 40.64038 -73.77368 16 ft 9 kts 128°
2026-05-05 15:15 40.64034 -73.77304 16 ft 8 kts 47°
2026-05-05 15:15 40.64080 -73.77262 17 ft 8 kts 33°
2026-05-05 15:16 40.64127 -73.77223 17 ft 8 kts 31°
2026-05-05 15:16 40.64174 -73.77187 17 ft 8 kts 29°
2026-05-05 15:16 40.64228 -73.77146 17 ft 12 kts 30°
2026-05-05 15:16 40.64305 -73.77086 16 ft 13 kts 31°
2026-05-05 15:17 40.64388 -73.77021 16 ft 15 kts 27°
2026-05-05 15:17 40.64490 -73.76988 16 ft 16 kts
2026-05-05 15:17 40.64603 -73.76991 16 ft 16 kts
2026-05-05 15:17 40.64708 -73.77014 16 ft 12 kts 333°
2026-05-05 15:18 40.64769 -73.77079 17 ft 11 kts 326°
2026-05-05 15:18 40.64827 -73.77071 19 ft 7 kts 42°
2026-05-05 15:18 40.64855 -73.77026 20 ft 7 kts 51°
2026-05-05 15:18 40.64892 -73.76959 21 ft 10 kts 56°
2026-05-05 15:19 40.64939 -73.76865 18 ft 15 kts 56°
2026-05-05 15:19 40.64986 -73.76774 17 ft 10 kts 58°
2026-05-05 15:19 40.64964 -73.76688 16 ft 12 kts 121°
2026-05-05 15:19 40.65001 -73.76603 16 ft 13 kts 28°
2026-05-05 15:20 40.65088 -73.76536 15 ft 15 kts 41°
2026-05-05 15:20 40.65089 -73.76444 16 ft 0 kts 123°
2026-05-05 15:21 40.65080 -73.76427 16 ft 4 kts 124°
2026-05-05 15:21 40.65057 -73.76381 15 ft 8 kts 124°
2026-05-05 15:21 40.65008 -73.76366 15 ft 9 kts 207°
2026-05-05 15:21 40.64895 -73.76455 15 ft 44 kts 210°
2026-05-05 15:22 40.64449 -73.76802 17 ft 103 kts 211°
2026-05-05 15:22 40.63696 -73.77389 18 ft 148 kts 211°
2026-05-05 15:22 40.62718 -73.78167 219 ft 169 kts 210°
2026-05-05 15:22 40.61746 -73.78991 930 ft 164 kts 213°
2026-05-05 15:23 40.60786 -73.79793 1559 ft 163 kts 217°
2026-05-05 15:23 40.59784 -73.80528 1999 ft 173 kts 203°
2026-05-05 15:23 40.58495 -73.80349 2270 ft 213 kts 155°
2026-05-05 15:23 40.57359 -73.78895 2478 ft 245 kts 129°
2026-05-05 15:24 40.56419 -73.76880 2723 ft 271 kts 122°
2026-05-05 15:24 40.55533 -73.74653 3282 ft 282 kts 120°
2026-05-05 15:24 40.54629 -73.72343 4071 ft 284 kts 121°
2026-05-05 15:24 40.53697 -73.70049 4910 ft 284 kts 123°
2026-05-05 15:25 40.52731 -73.67779 5710 ft 285 kts 125°
2026-05-05 15:25 40.51734 -73.65519 6505 ft 286 kts 126°
2026-05-05 15:25 40.50709 -73.63252 7229 ft 289 kts 127°
2026-05-05 15:25 40.49671 -73.60981 7921 ft 292 kts 127°
2026-05-05 15:26 40.48625 -73.58703 8593 ft 296 kts 128°
2026-05-05 15:26 40.47553 -73.56379 9270 ft 300 kts 128°
2026-05-05 15:26 40.46463 -73.54018 9944 ft 303 kts 128°
2026-05-05 15:26 40.45344 -73.51605 10246 ft 320 kts 128°
2026-05-05 15:27 40.44140 -73.49022 10383 ft 341 kts 127°
2026-05-05 15:27 40.42880 -73.46308 10507 ft 361 kts 127°
2026-05-05 15:27 40.41550 -73.43422 10725 ft 377 kts 126°
2026-05-05 15:27 40.40188 -73.40446 11191 ft 383 kts 126°
2026-05-05 15:28 40.38803 -73.37423 11704 ft 388 kts 126°
2026-05-05 15:28 40.37398 -73.34370 12223 ft 393 kts 126°
2026-05-05 15:28 40.35972 -73.31281 12733 ft 398 kts 126°
2026-05-05 15:28 40.34529 -73.28164 13247 ft 402 kts 126°
2026-05-05 15:29 40.33065 -73.25006 13765 ft 407 kts 125°
2026-05-05 15:29 40.31583 -73.21876 14226 ft 410 kts 126°
2026-05-05 15:29 40.30032 -73.18718 14714 ft 413 kts 127°
2026-05-05 15:29 40.28448 -73.15562 15218 ft 415 kts 127°
2026-05-05 15:30 40.26844 -73.12392 15716 ft 418 kts 127°
2026-05-05 15:30 40.25229 -73.09203 16226 ft 421 kts 127°
2026-05-05 15:30 40.23608 -73.05996 16743 ft 424 kts 127°
2026-05-05 15:30 40.21978 -73.02763 17263 ft 426 kts 126°
2026-05-05 15:31 40.20366 -72.99550 17790 ft 429 kts 126°
2026-05-05 15:31 40.18726 -72.96266 18310 ft 432 kts 126°
2026-05-05 15:31 40.17076 -72.92961 18781 ft 435 kts 126°
2026-05-05 15:31 40.15417 -72.89644 19247 ft 437 kts 126°
2026-05-05 15:32 40.13738 -72.86301 19704 ft 440 kts 126°
2026-05-05 15:32 40.12052 -72.82952 20156 ft 442 kts 126°
2026-05-05 15:32 40.10355 -72.79586 20587 ft 445 kts 126°
2026-05-05 15:32 40.08693 -72.76159 21002 ft 448 kts 124°
2026-05-05 15:33 40.07110 -72.72711 21393 ft 450 kts 123°
2026-05-05 15:33 40.05534 -72.69163 21792 ft 452 kts 122°
2026-05-05 15:33 40.03966 -72.65588 22173 ft 454 kts 122°
2026-05-05 15:33 40.02391 -72.62003 22540 ft 456 kts 122°
2026-05-05 15:34 40.00788 -72.58407 22907 ft 458 kts 123°
2026-05-05 15:34 39.99164 -72.54815 23272 ft 460 kts 123°
2026-05-05 15:34 39.97528 -72.51226 23621 ft 462 kts 123°
2026-05-05 15:34 39.95900 -72.47652 23913 ft 464 kts 123°
2026-05-05 15:35 39.94272 -72.44008 24207 ft 465 kts 122°
2026-05-05 15:35 39.92663 -72.40343 24494 ft 467 kts 122°
2026-05-05 15:35 39.91056 -72.36656 24791 ft 468 kts 122°
2026-05-05 15:35 39.89445 -72.32956 25074 ft 470 kts 122°
2026-05-05 15:36 39.87825 -72.29252 25357 ft 471 kts 122°
2026-05-05 15:36 39.86196 -72.25547 25727 ft 470 kts 122°
2026-05-05 15:36 39.84587 -72.21903 26134 ft 469 kts 122°
2026-05-05 15:36 39.82959 -72.18231 26545 ft 468 kts 122°
2026-05-05 15:37 39.81327 -72.14561 26949 ft 467 kts 122°
2026-05-05 15:37 39.79701 -72.10909 27359 ft 466 kts 122°
2026-05-05 15:37 39.78078 -72.07263 27764 ft 465 kts 122°
2026-05-05 15:37 39.76458 -72.03623 28177 ft 464 kts 122°
2026-05-05 15:38 39.74718 -72.00103 28582 ft 461 kts 130°
2026-05-05 15:38 39.72630 -71.96973 28977 ft 456 kts 139°
2026-05-05 15:38 39.70310 -71.94170 29370 ft 455 kts 141°
2026-05-05 15:38 39.68011 -71.91426 29761 ft 454 kts 141°
2026-05-05 15:39 39.65685 -71.88644 30147 ft 454 kts 141°
2026-05-05 15:39 39.63367 -71.85867 30486 ft 453 kts 140°
2026-05-05 15:39 39.61053 -71.83090 30847 ft 452 kts 140°
2026-05-05 15:39 39.58747 -71.80322 31215 ft 451 kts 140°
2026-05-05 15:40 39.56447 -71.77564 31592 ft 449 kts 140°
2026-05-05 15:40 39.54152 -71.74825 31975 ft 447 kts 140°
2026-05-05 15:40 39.51789 -71.72320 32351 ft 442 kts 149°
2026-05-05 15:40 39.49161 -71.70284 32719 ft 437 kts 158°
2026-05-05 15:41 39.46365 -71.68793 33080 ft 432 kts 165°
2026-05-05 15:41 39.43516 -71.67529 33447 ft 431 kts 164°
2026-05-05 15:41 39.40684 -71.66265 33815 ft 430 kts 164°
2026-05-05 15:41 39.37862 -71.65000 34147 ft 428 kts 164°
2026-05-05 15:42 39.35047 -71.63732 34416 ft 427 kts 164°
2026-05-05 15:42 39.32276 -71.62486 34669 ft 427 kts 164°
2026-05-05 15:42 39.29464 -71.61227 34909 ft 426 kts 164°
2026-05-05 15:42 39.26655 -71.59969 35059 ft 427 kts 164°
2026-05-05 15:43 39.23835 -71.58706 35107 ft 431 kts 164°
2026-05-05 15:43 39.17980 -71.56877 35105 ft 433 kts 179°
2026-05-05 15:44 39.11981 -71.56513 35103 ft 434 kts 180°
2026-05-05 15:44 39.05935 -71.56135 35109 ft 435 kts 180°
2026-05-05 15:45 38.99919 -71.55744 35111 ft 435 kts 180°
2026-05-05 15:45 38.93858 -71.55375 35116 ft 435 kts 180°
2026-05-05 15:46 38.87800 -71.55009 35123 ft 436 kts 180°
2026-05-05 15:46 38.81726 -71.54640 35128 ft 436 kts 180°
2026-05-05 15:47 38.75693 -71.54273 35130 ft 437 kts 181°
2026-05-05 15:47 38.69617 -71.53912 35138 ft 437 kts 181°
2026-05-05 15:48 38.63540 -71.53551 35144 ft 437 kts 181°
2026-05-05 15:48 38.57508 -71.53333 35145 ft 433 kts 188°
2026-05-05 15:49 38.51706 -71.54987 35141 ft 424 kts 205°
2026-05-05 15:49 38.46230 -71.57832 35142 ft 424 kts 205°
2026-05-05 15:50 38.40749 -71.60649 35141 ft 424 kts 205°
2026-05-05 15:50 38.35299 -71.63450 35147 ft 425 kts 205°
2026-05-05 15:51 38.29817 -71.66273 35148 ft 425 kts 205°
2026-05-05 15:51 38.24331 -71.69094 35151 ft 425 kts 205°
2026-05-05 15:52 38.18876 -71.71891 35151 ft 425 kts 205°
2026-05-05 15:52 38.13389 -71.74696 35149 ft 425 kts 205°
2026-05-05 15:53 38.07893 -71.77503 35157 ft 425 kts 205°
2026-05-05 15:53 38.02403 -71.80308 35163 ft 425 kts 205°
2026-05-05 15:54 37.96913 -71.83119 35164 ft 425 kts 205°
2026-05-05 15:54 37.91453 -71.85894 35169 ft 425 kts 205°
2026-05-05 15:55 37.85956 -71.88685 35173 ft 425 kts 205°
2026-05-05 15:55 37.80462 -71.91473 35175 ft 425 kts 205°
2026-05-05 15:56 37.74960 -71.94254 35183 ft 425 kts 205°
2026-05-05 15:56 37.69504 -71.97011 35180 ft 425 kts 205°
2026-05-05 15:57 37.64051 -71.99873 35175 ft 423 kts 207°
2026-05-05 15:57 37.58715 -72.03021 35175 ft 422 kts 209°
2026-05-05 15:58 37.53407 -72.06214 35177 ft 422 kts 208°
2026-05-05 15:58 37.48112 -72.09336 35179 ft 423 kts 208°
2026-05-05 15:59 37.42765 -72.12443 35181 ft 423 kts 208°
2026-05-05 15:59 37.37408 -72.15547 35186 ft 423 kts 208°
2026-05-05 16:00 37.32097 -72.18630 35191 ft 423 kts 208°
2026-05-05 16:00 37.26754 -72.21725 35192 ft 422 kts 208°
2026-05-05 16:01 37.21409 -72.24811 35189 ft 422 kts 208°
2026-05-05 16:01 37.16110 -72.27875 35190 ft 421 kts 208°
2026-05-05 16:02 37.10785 -72.30945 35180 ft 420 kts 208°
2026-05-05 16:02 37.05474 -72.34001 35181 ft 419 kts 208°
2026-05-05 16:03 37.00163 -72.37055 35181 ft 419 kts 208°
2026-05-05 16:03 36.94891 -72.40081 35183 ft 419 kts 208°
2026-05-05 16:04 36.89582 -72.43125 35187 ft 419 kts 208°
2026-05-05 16:04 36.84274 -72.46159 35186 ft 419 kts 208°
2026-05-05 16:05 36.78964 -72.49190 35197 ft 419 kts 208°
2026-05-05 16:05 36.73628 -72.52049 35196 ft 422 kts 200°
2026-05-05 16:06 36.68773 -72.52991 35197 ft 430 kts 184°
2026-05-05 16:06 36.65768 -72.52672 35198 ft 436 kts 173°
2026-05-05 16:06 36.62807 -72.51765 35193 ft 439 kts 169°
2026-05-05 16:07 36.55928 -72.49498 35200 ft 439 kts 170°
2026-05-05 16:07 36.50962 -72.47893 35201 ft 440 kts 170°
2026-05-05 16:08 36.45067 -72.45988 35210 ft 440 kts 170°
2026-05-05 16:08 36.39128 -72.44048 35211 ft 440 kts 170°
2026-05-05 16:09 36.33234 -72.42125 35218 ft 440 kts 170°
2026-05-05 16:09 36.27302 -72.40194 35220 ft 440 kts 170°
2026-05-05 16:10 36.21369 -72.38283 35221 ft 440 kts 170°
2026-05-05 16:10 36.15476 -72.36383 35218 ft 440 kts 170°
2026-05-05 16:11 36.09547 -72.34462 35225 ft 440 kts 170°
2026-05-05 16:11 36.00590 -72.32708 35222 ft 429 kts 185°
2026-05-05 16:12 35.97597 -72.32769 35225 ft 430 kts 185°
2026-05-05 16:13 35.82666 -72.32978 35225 ft 430 kts 185°
2026-05-05 16:13 35.76668 -72.33060 35228 ft 430 kts 185°
2026-05-05 16:14 35.64711 -72.33240 35235 ft 430 kts 185°
2026-05-05 16:15 35.52716 -72.33404 35238 ft 430 kts 185°
2026-05-05 16:16 35.40771 -72.33578 35241 ft 430 kts 185°
2026-05-05 16:17 35.31790 -72.33703 35244 ft 430 kts 186°
2026-05-05 16:18 35.22846 -72.33843 35246 ft 430 kts 186°
2026-05-05 16:19 35.13861 -72.33966 35247 ft 430 kts 185°
2026-05-05 16:19 35.04905 -72.34093 35247 ft 430 kts 185°
2026-05-05 16:20 34.92999 -72.34820 35249 ft 425 kts 192°
2026-05-05 16:22 34.78352 -72.37220 35255 ft 425 kts 192°
2026-05-05 16:23 34.66468 -72.37545 35250 ft 433 kts 180°
2026-05-05 16:23 34.57500 -72.36561 35246 ft 433 kts 180°
2026-05-05 16:24 34.51499 -72.35911 35250 ft 432 kts 180°
2026-05-05 16:25 34.42498 -72.34940 35253 ft 432 kts 180°
2026-05-05 16:25 34.33543 -72.33969 35256 ft 432 kts 180°
2026-05-05 16:26 34.21562 -72.32671 35254 ft 432 kts 180°
2026-05-05 16:27 34.15569 -72.32031 35259 ft 431 kts 180°
2026-05-05 16:27 34.09621 -72.31389 35259 ft 431 kts 180°
2026-05-05 16:28 34.03643 -72.30748 35252 ft 430 kts 180°
2026-05-05 16:28 33.97672 -72.30015 35253 ft 434 kts 175°
2026-05-05 16:29 33.91758 -72.28406 35256 ft 435 kts 173°
2026-05-05 16:29 33.85875 -72.26774 35253 ft 435 kts 173°
2026-05-05 16:30 33.79979 -72.25150 35256 ft 434 kts 174°
2026-05-05 16:30 33.74092 -72.23543 35255 ft 433 kts 174°
2026-05-05 16:31 33.68255 -72.21942 35249 ft 433 kts 174°
2026-05-05 16:31 33.62382 -72.20334 35250 ft 432 kts 174°
2026-05-05 16:32 33.56522 -72.18738 35255 ft 431 kts 174°
2026-05-05 16:32 33.50660 -72.17145 35254 ft 431 kts 174°
2026-05-05 16:33 33.44809 -72.15554 35252 ft 431 kts 174°
2026-05-05 16:33 33.38968 -72.13956 35244 ft 430 kts 174°
2026-05-05 16:34 33.33173 -72.12382 35256 ft 429 kts 174°
2026-05-05 16:34 33.27343 -72.10798 35253 ft 428 kts 175°
2026-05-05 16:35 33.21520 -72.09234 35250 ft 428 kts 175°
2026-05-05 16:35 33.15707 -72.07666 35248 ft 427 kts 175°
2026-05-05 16:36 33.09948 -72.06106 35243 ft 427 kts 175°
2026-05-05 16:36 33.04159 -72.04532 35242 ft 426 kts 175°
2026-05-05 16:37 32.98412 -72.02977 35241 ft 425 kts 175°
2026-05-05 16:37 32.92640 -72.01431 35242 ft 423 kts 176°
2026-05-05 16:38 32.86885 -71.99898 35244 ft 423 kts 176°
2026-05-05 16:38 32.81178 -71.98367 35239 ft 422 kts 176°
2026-05-05 16:39 32.75448 -71.96828 35242 ft 421 kts 176°
2026-05-05 16:39 32.69727 -71.95291 35237 ft 420 kts 176°
2026-05-05 16:40 32.64054 -71.93778 35242 ft 419 kts 176°
2026-05-05 16:40 32.58359 -71.92266 35239 ft 419 kts 176°
2026-05-05 16:41 32.52704 -71.90759 35242 ft 417 kts 177°
2026-05-05 16:41 32.47035 -71.89247 35241 ft 416 kts 177°
2026-05-05 16:42 32.41388 -71.87744 35242 ft 415 kts 177°
2026-05-05 16:42 32.35757 -71.86246 35241 ft 414 kts 177°
2026-05-05 16:43 32.30070 -71.84743 35227 ft 428 kts 173°
2026-05-05 16:43 32.24168 -71.83180 35222 ft 438 kts 173°
2026-05-05 16:44 32.18196 -71.81608 35222 ft 440 kts 173°
2026-05-05 16:44 32.12219 -71.80029 35219 ft 440 kts 173°
2026-05-05 16:45 32.06277 -71.78453 35218 ft 440 kts 173°
2026-05-05 16:45 32.00301 -71.76872 35217 ft 440 kts 174°
2026-05-05 16:46 31.94318 -71.75300 35218 ft 440 kts 174°
2026-05-05 16:46 31.88371 -71.73742 35213 ft 440 kts 174°
2026-05-05 16:47 31.82392 -71.72171 35218 ft 440 kts 174°
2026-05-05 16:47 31.76404 -71.70602 35222 ft 440 kts 174°
2026-05-05 16:48 31.70461 -71.69060 35215 ft 439 kts 175°
2026-05-05 16:48 31.64482 -71.67498 35209 ft 439 kts 175°
2026-05-05 16:49 31.58512 -71.65933 35210 ft 439 kts 175°
2026-05-05 16:49 31.52582 -71.64387 35211 ft 439 kts 175°
2026-05-05 16:50 31.46618 -71.62831 35213 ft 439 kts 175°
2026-05-05 16:50 31.40681 -71.61288 35217 ft 438 kts 175°
2026-05-05 16:51 31.34718 -71.59744 35213 ft 438 kts 175°
2026-05-05 16:51 31.28757 -71.58197 35209 ft 438 kts 175°
2026-05-05 16:52 31.22796 -71.56655 35214 ft 438 kts 175°
2026-05-05 16:52 31.16878 -71.55124 35206 ft 438 kts 175°
2026-05-05 16:53 31.10920 -71.53591 35205 ft 438 kts 175°
2026-05-05 16:53 31.04996 -71.52065 35206 ft 438 kts 175°
2026-05-05 16:54 30.99048 -71.50527 35201 ft 438 kts 175°
2026-05-05 16:54 30.93088 -71.48991 35198 ft 438 kts 175°
2026-05-05 16:55 30.87132 -71.47454 35190 ft 438 kts 175°
2026-05-05 16:55 30.81217 -71.45935 35191 ft 438 kts 175°
2026-05-05 16:56 30.75260 -71.44416 35195 ft 438 kts 175°
2026-05-05 16:56 30.70302 -71.43149 35193 ft 438 kts 175°
2026-05-05 16:57 30.63367 -71.41377 35187 ft 438 kts 175°
2026-05-05 16:57 30.57403 -71.39856 35186 ft 438 kts 175°
2026-05-05 16:58 30.52434 -71.38591 35197 ft 438 kts 175°
2026-05-05 16:58 30.46464 -71.37068 35195 ft 439 kts 175°
2026-05-05 16:59 30.40537 -71.35560 35199 ft 439 kts 175°
2026-05-05 16:59 30.34575 -71.34041 35200 ft 438 kts 175°
2026-05-05 17:00 30.28603 -71.32533 35200 ft 438 kts 175°
2026-05-05 17:00 30.22686 -71.31037 35201 ft 437 kts 175°
2026-05-05 17:01 30.16732 -71.29532 35199 ft 437 kts 175°
2026-05-05 17:01 30.10794 -71.28019 35201 ft 436 kts 175°
2026-05-05 17:02 30.04896 -71.26528 35194 ft 435 kts 176°
2026-05-05 17:02 29.98977 -71.25031 35198 ft 435 kts 176°
2026-05-05 17:03 29.93066 -71.23539 35194 ft 434 kts 176°
2026-05-05 17:03 29.87199 -71.22075 35192 ft 433 kts 176°
2026-05-05 17:04 29.81305 -71.20598 35189 ft 433 kts 176°
2026-05-05 17:04 29.75419 -71.19113 35187 ft 433 kts 176°
2026-05-05 17:05 29.69529 -71.17638 35186 ft 432 kts 176°
2026-05-05 17:05 29.63643 -71.16167 35176 ft 432 kts 176°
2026-05-05 17:06 29.57801 -71.14708 35174 ft 432 kts 176°
2026-05-05 17:06 29.51908 -71.13235 35172 ft 433 kts 176°
2026-05-05 17:07 29.46014 -71.11763 35169 ft 433 kts 176°
2026-05-05 17:07 29.40127 -71.10299 35167 ft 433 kts 176°
2026-05-05 17:08 29.34234 -71.08836 35152 ft 433 kts 176°
2026-05-05 17:08 29.28374 -71.07376 35155 ft 433 kts 176°
2026-05-05 17:09 29.22478 -71.05907 35155 ft 433 kts 177°
2026-05-05 17:09 29.16575 -71.04445 35160 ft 433 kts 177°
2026-05-05 17:10 29.10708 -71.02999 35158 ft 433 kts 177°
2026-05-05 17:10 29.04806 -71.01532 35153 ft 434 kts 177°
2026-05-05 17:11 28.98905 -71.00067 35150 ft 434 kts 177°
2026-05-05 17:11 28.93003 -70.98615 35153 ft 434 kts 178°
2026-05-05 17:12 28.87135 -70.97170 35159 ft 434 kts 178°
2026-05-05 17:12 28.81231 -70.95714 35155 ft 434 kts 178°
2026-05-05 17:13 28.75326 -70.94258 35154 ft 434 kts 178°
2026-05-05 17:13 28.69419 -70.92811 35152 ft 434 kts 178°
2026-05-05 17:14 28.63551 -70.91366 35153 ft 434 kts 178°
2026-05-05 17:14 28.57640 -70.89924 35148 ft 434 kts 178°
2026-05-05 17:15 28.51728 -70.88483 35149 ft 434 kts 178°
2026-05-05 17:15 28.45816 -70.87036 35151 ft 434 kts 177°
2026-05-05 17:16 28.39937 -70.85594 35148 ft 434 kts 177°
2026-05-05 17:16 28.34023 -70.84142 35149 ft 435 kts 177°
2026-05-05 17:17 28.28128 -70.82701 35145 ft 435 kts 177°
2026-05-05 17:17 28.22204 -70.81262 35146 ft 435 kts 177°
2026-05-05 17:18 28.16281 -70.79826 35144 ft 435 kts 177°
2026-05-05 17:18 28.10355 -70.78391 35141 ft 435 kts 177°
2026-05-05 17:19 28.04467 -70.76970 35138 ft 435 kts 177°
2026-05-05 17:19 27.98535 -70.75539 35142 ft 436 kts 177°
2026-05-05 17:20 27.92590 -70.74098 35134 ft 436 kts 177°
2026-05-05 17:20 27.86685 -70.72663 35135 ft 436 kts 177°
2026-05-05 17:21 27.80740 -70.71229 35134 ft 437 kts 177°
2026-05-05 17:22 27.71816 -70.69081 35134 ft 437 kts 177°
2026-05-05 17:22 27.65860 -70.67641 35131 ft 438 kts 177°
2026-05-05 17:23 27.59936 -70.66206 35126 ft 438 kts 177°
2026-05-05 17:23 27.53963 -70.64773 35123 ft 438 kts 177°
2026-05-05 17:24 27.47986 -70.63342 35118 ft 439 kts 177°
2026-05-05 17:24 27.41994 -70.61909 35120 ft 439 kts 177°
2026-05-05 17:25 27.36044 -70.60481 35111 ft 440 kts 177°
2026-05-05 17:25 27.30045 -70.59051 35118 ft 441 kts 177°
2026-05-05 17:26 27.24038 -70.57614 35118 ft 441 kts 176°
2026-05-05 17:26 27.18051 -70.56183 35115 ft 442 kts 176°
2026-05-05 17:27 27.12026 -70.54745 35108 ft 442 kts 176°
2026-05-05 17:27 27.05981 -70.53305 35109 ft 443 kts 176°
2026-05-05 17:28 26.99982 -70.51873 35106 ft 444 kts 176°
2026-05-05 17:28 26.93915 -70.50430 35108 ft 444 kts 176°
2026-05-05 17:29 26.87848 -70.48989 35109 ft 445 kts 176°
2026-05-05 17:29 26.81818 -70.47564 35106 ft 446 kts 176°
2026-05-05 17:30 26.75728 -70.46124 35107 ft 447 kts 176°
2026-05-05 17:30 26.69645 -70.44683 35102 ft 447 kts 176°
2026-05-05 17:31 26.63582 -70.43252 35104 ft 448 kts 176°
2026-05-05 17:31 26.57464 -70.41810 35111 ft 449 kts 176°
2026-05-05 17:32 26.51350 -70.40363 35412 ft 446 kts 176°
2026-05-05 17:32 26.48352 -70.39653 35735 ft 444 kts 176°
2026-05-05 17:32 26.45325 -70.38939 35997 ft 444 kts 176°
2026-05-05 17:32 26.42302 -70.38229 36241 ft 444 kts 176°
2026-05-05 17:33 26.39281 -70.37522 36476 ft 443 kts 176°
2026-05-05 17:33 26.36252 -70.36814 36702 ft 443 kts 176°
2026-05-05 17:33 26.33235 -70.36106 36925 ft 443 kts 176°
2026-05-05 17:33 26.30216 -70.35394 37077 ft 444 kts 176°
2026-05-05 17:34 26.27225 -70.34687 37105 ft 444 kts 176°
2026-05-05 17:34 26.21160 -70.33260 37104 ft 444 kts 176°
2026-05-05 17:35 26.15108 -70.31841 37112 ft 445 kts 176°
2026-05-05 17:35 26.09079 -70.30437 37110 ft 446 kts 176°
2026-05-05 17:36 26.02996 -70.29019 37114 ft 447 kts 176°
2026-05-05 17:36 25.96903 -70.27599 37112 ft 447 kts 175°
2026-05-05 17:37 25.90796 -70.26169 37106 ft 448 kts 175°
2026-05-05 17:37 25.84723 -70.24748 37106 ft 449 kts 175°
2026-05-05 17:38 25.78594 -70.23321 37103 ft 449 kts 175°
2026-05-05 17:38 25.72462 -70.21901 37101 ft 450 kts 175°
2026-05-05 17:39 25.66359 -70.20485 37098 ft 451 kts 175°
2026-05-05 17:39 25.60204 -70.19049 37099 ft 451 kts 175°
2026-05-05 17:40 25.54039 -70.17619 37104 ft 452 kts 175°
2026-05-05 17:40 25.47880 -70.16195 37101 ft 452 kts 175°
2026-05-05 17:41 25.41739 -70.14772 37099 ft 453 kts 175°
2026-05-05 17:41 25.35559 -70.13342 37104 ft 453 kts 175°
2026-05-05 17:42 25.29365 -70.11920 37107 ft 454 kts 175°
2026-05-05 17:42 25.23221 -70.10496 37109 ft 454 kts 175°
2026-05-05 17:43 25.17020 -70.09067 37108 ft 454 kts 175°
2026-05-05 17:43 25.10825 -70.07643 37109 ft 455 kts 175°
2026-05-05 17:44 25.04620 -70.06216 37105 ft 455 kts 175°
2026-05-05 17:44 24.98453 -70.05070 37108 ft 447 kts 184°
2026-05-05 17:45 24.92252 -70.04783 37105 ft 446 kts 184°
2026-05-05 17:45 24.86043 -70.04508 37106 ft 446 kts 184°
2026-05-05 17:46 24.79828 -70.04222 37102 ft 446 kts 184°
2026-05-05 17:46 24.73649 -70.03932 37100 ft 447 kts 184°
2026-05-05 17:47 24.67434 -70.03646 37103 ft 447 kts 184°
2026-05-05 17:47 24.62261 -70.03412 37101 ft 447 kts 184°
2026-05-05 17:48 24.56038 -70.03127 37098 ft 447 kts 184°
2026-05-05 17:48 24.49807 -70.02847 37096 ft 448 kts 184°
2026-05-05 17:49 24.43598 -70.02563 37100 ft 449 kts 184°
2026-05-05 17:49 24.37348 -70.02271 37096 ft 450 kts 184°
2026-05-05 17:50 24.31088 -70.01985 37100 ft 450 kts 184°
2026-05-05 17:50 24.24812 -70.01690 37096 ft 451 kts 184°
2026-05-05 17:51 24.18577 -70.01403 37097 ft 451 kts 184°
2026-05-05 17:51 24.12306 -70.01293 37091 ft 449 kts 187°
2026-05-05 17:52 24.06054 -70.01425 37088 ft 449 kts 187°
2026-05-05 17:52 23.99799 -70.01568 37090 ft 450 kts 187°
2026-05-05 17:53 23.93555 -70.01649 37087 ft 451 kts 186°
2026-05-05 17:53 23.87272 -70.01701 37077 ft 451 kts 186°
2026-05-05 17:54 23.80981 -70.01763 37081 ft 452 kts 186°
2026-05-05 17:54 23.74731 -70.01827 37080 ft 452 kts 186°
2026-05-05 17:55 23.68429 -70.01887 37081 ft 452 kts 186°
2026-05-05 17:55 23.62119 -70.01948 37080 ft 453 kts 186°
2026-05-05 17:56 23.55806 -70.02013 37081 ft 453 kts 186°
2026-05-05 17:56 23.49524 -70.02087 37085 ft 454 kts 186°
2026-05-05 17:57 23.43202 -70.02156 37085 ft 454 kts 186°
2026-05-05 17:57 23.36867 -70.02223 37084 ft 455 kts 186°
2026-05-05 17:58 23.30567 -70.02281 37085 ft 455 kts 186°
2026-05-05 17:58 23.24220 -70.02347 37088 ft 456 kts 186°
2026-05-05 17:59 23.17875 -70.02420 37087 ft 456 kts 186°
2026-05-05 17:59 23.11520 -70.02487 37089 ft 456 kts 186°
2026-05-05 18:00 23.05160 -70.02549 37095 ft 457 kts 186°
2026-05-05 18:00 22.98840 -70.02615 37101 ft 457 kts 186°
2026-05-05 18:01 22.92522 -70.02731 37085 ft 453 kts 186°
2026-05-05 18:01 22.86185 -70.02789 37086 ft 456 kts 185°
2026-05-05 18:02 22.79831 -70.02823 37082 ft 456 kts 185°
2026-05-05 18:02 22.73518 -70.02873 37090 ft 456 kts 185°
2026-05-05 18:03 22.67156 -70.02947 37087 ft 456 kts 185°
2026-05-05 18:03 22.60827 -70.03027 37091 ft 457 kts 185°
2026-05-05 18:04 22.54459 -70.03095 37096 ft 457 kts 185°
2026-05-05 18:04 22.48080 -70.03157 37097 ft 457 kts 185°
2026-05-05 18:05 22.41708 -70.03215 37096 ft 458 kts 185°
2026-05-05 18:05 22.35334 -70.03281 37097 ft 457 kts 185°
2026-05-05 18:06 22.28999 -70.03347 37102 ft 457 kts 185°
2026-05-05 18:06 22.22620 -70.03413 37103 ft 457 kts 185°
2026-05-05 18:07 22.16278 -70.03481 37102 ft 457 kts 185°
2026-05-05 18:07 22.09911 -70.03553 37103 ft 457 kts 185°
2026-05-05 18:08 22.03542 -70.03627 37103 ft 457 kts 185°
2026-05-05 18:08 21.97177 -70.03685 37104 ft 457 kts 184°
2026-05-05 18:09 21.90855 -70.03743 37103 ft 457 kts 184°
2026-05-05 18:09 21.84496 -70.03804 37105 ft 456 kts 185°
2026-05-05 18:10 21.78130 -70.03870 37105 ft 456 kts 185°
2026-05-05 18:10 21.71784 -70.03935 37105 ft 455 kts 185°
2026-05-05 18:11 21.65479 -70.04000 37107 ft 455 kts 185°
2026-05-05 18:11 21.59142 -70.04066 37103 ft 454 kts 185°
2026-05-05 18:12 21.52810 -70.04137 37102 ft 454 kts 185°
2026-05-05 18:12 21.46488 -70.04203 37099 ft 454 kts 185°
2026-05-05 18:13 21.40211 -70.04261 37098 ft 454 kts 185°
2026-05-05 18:13 21.33888 -70.04328 37096 ft 453 kts 185°
2026-05-05 18:14 21.27578 -70.04391 37094 ft 453 kts 185°
2026-05-05 18:14 21.21271 -70.04460 37092 ft 453 kts 185°
2026-05-05 18:15 21.15001 -70.04526 37095 ft 453 kts 185°
2026-05-05 18:15 21.08696 -70.04589 37092 ft 453 kts 185°
2026-05-05 18:16 21.02399 -70.04653 37089 ft 452 kts 185°
2026-05-05 18:16 20.96098 -70.04715 37092 ft 452 kts 185°
2026-05-05 18:17 20.89800 -70.04781 37088 ft 452 kts 185°
2026-05-05 18:17 20.83502 -70.04843 37091 ft 452 kts 185°
2026-05-05 18:18 20.77251 -70.04899 37086 ft 452 kts 185°
2026-05-05 18:18 20.70945 -70.04967 37086 ft 452 kts 185°
2026-05-05 18:19 20.64655 -70.05034 37085 ft 452 kts 185°
2026-05-05 18:19 20.58404 -70.05096 37076 ft 451 kts 185°
2026-05-05 18:20 20.52111 -70.05157 37079 ft 451 kts 185°
2026-05-05 18:20 20.45819 -70.05221 37074 ft 451 kts 185°
2026-05-05 18:21 20.39583 -70.05288 37077 ft 451 kts 185°
2026-05-05 18:21 20.33307 -70.05350 37075 ft 451 kts 185°
2026-05-05 18:22 20.27027 -70.05413 37075 ft 451 kts 185°
2026-05-05 18:22 20.20744 -70.05446 37074 ft 453 kts 181°
2026-05-05 18:23 20.14553 -70.04088 37074 ft 464 kts 163°
2026-05-05 18:23 20.08599 -70.01292 37073 ft 466 kts 160°
2026-05-05 18:24 20.02664 -69.98492 37068 ft 467 kts 161°
2026-05-05 18:24 19.96720 -69.95693 37070 ft 467 kts 161°
2026-05-05 18:25 19.90775 -69.92891 37071 ft 467 kts 161°
2026-05-05 18:25 19.84856 -69.90109 37071 ft 467 kts 161°
2026-05-05 18:26 19.79012 -69.87045 37069 ft 473 kts 150°
2026-05-05 18:26 19.73860 -69.82685 37035 ft 477 kts 144°
2026-05-05 18:26 19.71318 -69.80422 36778 ft 476 kts 144°
2026-05-05 18:27 19.68772 -69.78164 36510 ft 475 kts 144°
2026-05-05 18:27 19.66230 -69.75919 35927 ft 475 kts 144°
2026-05-05 18:27 19.63680 -69.73673 35178 ft 478 kts 143°
2026-05-05 18:27 19.61138 -69.71437 34333 ft 484 kts 143°
2026-05-05 18:28 19.55888 -69.66822 32378 ft 493 kts 142°
2026-05-05 18:28 19.53227 -69.64479 31364 ft 497 kts 142°
2026-05-05 18:28 19.50596 -69.62157 30431 ft 499 kts 142°
2026-05-05 18:29 19.47910 -69.59787 29171 ft 504 kts 142°
2026-05-05 18:29 19.45195 -69.57392 28017 ft 505 kts 142°
2026-05-05 18:29 19.42488 -69.55008 26960 ft 505 kts 142°
2026-05-05 18:29 19.39805 -69.52651 26297 ft 497 kts 142°
2026-05-05 18:30 19.37186 -69.50349 25528 ft 493 kts 142°
2026-05-05 18:30 19.34555 -69.48040 24763 ft 489 kts 142°
2026-05-05 18:30 19.31936 -69.45742 23998 ft 485 kts 142°
2026-05-05 18:30 19.29345 -69.43467 23184 ft 482 kts 142°
2026-05-05 18:31 19.26777 -69.41212 22425 ft 477 kts 142°
2026-05-05 18:31 19.24238 -69.38983 21685 ft 471 kts 142°
2026-05-05 18:31 19.21729 -69.36783 20960 ft 466 kts 142°
2026-05-05 18:31 19.19275 -69.34634 20266 ft 461 kts 142°
2026-05-05 18:32 19.16819 -69.32484 19583 ft 455 kts 142°
2026-05-05 18:32 19.14390 -69.30359 18940 ft 450 kts 142°
2026-05-05 18:32 19.11992 -69.28258 18306 ft 445 kts 142°
2026-05-05 18:32 19.09625 -69.26183 17648 ft 439 kts 142°
2026-05-05 18:33 19.07289 -69.24138 17052 ft 433 kts 142°
2026-05-05 18:33 19.04978 -69.22120 16551 ft 426 kts 142°
2026-05-05 18:33 19.02726 -69.20154 16437 ft 411 kts 142°
2026-05-05 18:33 19.00589 -69.18286 16301 ft 397 kts 142°
2026-05-05 18:34 18.98508 -69.16453 16192 ft 383 kts 139°
2026-05-05 18:34 18.96763 -69.14383 16081 ft 372 kts 126°
2026-05-05 18:34 18.95461 -69.12065 15610 ft 362 kts 120°
2026-05-05 18:34 18.94263 -69.09732 14891 ft 359 kts 119°
2026-05-05 18:35 18.93085 -69.07409 14486 ft 356 kts 119°
2026-05-05 18:35 18.91942 -69.05144 14087 ft 350 kts 118°
2026-05-05 18:35 18.90803 -69.02892 13365 ft 345 kts 118°
2026-05-05 18:35 18.89678 -69.00678 12629 ft 339 kts 119°
2026-05-05 18:36 18.88568 -68.98503 12006 ft 333 kts 120°
2026-05-05 18:36 18.87476 -68.96366 11480 ft 328 kts 120°
2026-05-05 18:36 18.86408 -68.94278 11227 ft 315 kts 120°
2026-05-05 18:36 18.85391 -68.92290 11096 ft 299 kts 120°
2026-05-05 18:37 18.84441 -68.90432 10981 ft 284 kts 120°
2026-05-05 18:37 18.83516 -68.88623 10860 ft 275 kts 120°
2026-05-05 18:37 18.82907 -68.87464 10778 ft 268 kts 124°
2026-05-05 18:37 18.81817 -68.85927 10466 ft 257 kts 130°
2026-05-05 18:38 18.80707 -68.84454 10215 ft 255 kts 130°
2026-05-05 18:38 18.79596 -68.82985 9946 ft 255 kts 130°
2026-05-05 18:38 18.78492 -68.81523 9681 ft 254 kts 130°
2026-05-05 18:38 18.77394 -68.80070 9428 ft 252 kts 130°
2026-05-05 18:39 18.76302 -68.78624 9147 ft 251 kts 130°
2026-05-05 18:39 18.75220 -68.77187 8909 ft 250 kts 130°
2026-05-05 18:39 18.74156 -68.75776 8671 ft 248 kts 130°
2026-05-05 18:39 18.73083 -68.74355 8413 ft 247 kts 129°
2026-05-05 18:40 18.72019 -68.72943 8159 ft 245 kts 130°
2026-05-05 18:40 18.70961 -68.71536 7911 ft 244 kts 130°
2026-05-05 18:40 18.69914 -68.70143 7518 ft 240 kts 130°
2026-05-05 18:40 18.68873 -68.68764 7033 ft 239 kts 129°
2026-05-05 18:41 18.67847 -68.67404 6690 ft 234 kts 129°
2026-05-05 18:41 18.66851 -68.66074 6386 ft 233 kts 129°
2026-05-05 18:41 18.65853 -68.64742 6088 ft 230 kts 129°
2026-05-05 18:41 18.64858 -68.63419 5825 ft 230 kts 130°
2026-05-05 18:42 18.63885 -68.62124 5650 ft 220 kts 129°
2026-05-05 18:42 18.62926 -68.60848 5308 ft 222 kts 130°
2026-05-05 18:42 18.61960 -68.59562 5020 ft 225 kts 129°
2026-05-05 18:42 18.60961 -68.58283 4742 ft 226 kts 136°
2026-05-05 18:43 18.59698 -68.57382 4452 ft 219 kts 157°
2026-05-05 18:43 18.58275 -68.56929 4185 ft 209 kts 163°
2026-05-05 18:43 18.56898 -68.56524 3921 ft 200 kts 163°
2026-05-05 18:43 18.55605 -68.56141 3684 ft 184 kts 162°
2026-05-05 18:44 18.54393 -68.55773 3461 ft 178 kts 158°
2026-05-05 18:44 18.53413 -68.55040 3229 ft 175 kts 130°
2026-05-05 18:44 18.52949 -68.53936 2997 ft 162 kts 102°
2026-05-05 18:44 18.53035 -68.52792 2811 ft 153 kts 78°
2026-05-05 18:45 18.53342 -68.51739 2645 ft 150 kts 78°
2026-05-05 18:45 18.53636 -68.50689 2418 ft 147 kts 80°
2026-05-05 18:45 18.53925 -68.49664 2215 ft 145 kts 78°
2026-05-05 18:45 18.54220 -68.48617 2066 ft 152 kts 79°
2026-05-05 18:46 18.54512 -68.47575 1896 ft 149 kts 79°
2026-05-05 18:46 18.54799 -68.46520 1601 ft 150 kts 79°
2026-05-05 18:46 18.55080 -68.45441 1301 ft 152 kts 80°
2026-05-05 18:46 18.55349 -68.44386 1167 ft 146 kts 80°
2026-05-05 18:47 18.55636 -68.43378 1037 ft 143 kts 78°
2026-05-05 18:47 18.55913 -68.42390 844 ft 142 kts 79°
2026-05-05 18:47 18.56192 -68.41391 669 ft 140 kts 79°
2026-05-05 18:47 18.56431 -68.40388 488 ft 141 kts 81°
2026-05-05 18:48 18.56717 -68.39419 292 ft 139 kts 77°
2026-05-05 18:48 18.57000 -68.38433 134 ft 141 kts 82°
2026-05-05 18:48 18.57254 -68.37482 49 ft 118 kts 73°
2026-05-05 18:48 18.57433 -68.36829 48 ft 69 kts 73°
2026-05-05 18:49 18.57525 -68.36498 48 ft 35 kts 73°
2026-05-05 18:49 18.57590 -68.36258 48 ft 31 kts 74°
2026-05-05 18:49 18.57593 -68.36041 50 ft 27 kts 102°
2026-05-05 18:49 18.57557 -68.35915 50 ft 17 kts 118°
2026-05-05 18:50 18.57466 -68.35836 50 ft 18 kts 171°
2026-05-05 18:50 18.57332 -68.35829 48 ft 20 kts 176°
2026-05-05 18:50 18.57185 -68.35817 50 ft 22 kts 175°
2026-05-05 18:50 18.57031 -68.35810 50 ft 20 kts 178°
2026-05-05 18:51 18.56898 -68.35801 49 ft 20 kts 175°
2026-05-05 18:51 18.56746 -68.35790 48 ft 23 kts 175°
2026-05-05 18:51 18.56630 -68.35777 49 ft 14 kts 173°
2026-05-05 18:51 18.56531 -68.35780 50 ft 15 kts 211°
2026-05-05 18:52 18.56505 -68.35882 50 ft 15 kts 269°
2026-05-05 18:52 18.56495 -68.35990 50 ft 15 kts 263°
2026-05-05 18:52 18.56484 -68.36100 50 ft 15 kts 264°
2026-05-05 18:52 18.56477 -68.36211 50 ft 16 kts 266°
2026-05-05 18:53 18.56470 -68.36308 48 ft 8 kts 265°
2026-05-05 18:53 18.56442 -68.36341 50 ft 7 kts 182°
2026-05-05 18:53 18.56393 -68.36337 50 ft 6 kts 176°
2026-05-05 18:53 18.56374 -68.36335 50 ft 0 kts 176°